Regional Weather Roundup
Issued by NWS

Home | Current Version | Previous Version | Graphics & Text | Print | Product List | Glossary On
Versions: 1 2 3 4 5 6 7 8 9 10 11 12 13 14 15 16 17 18 19 20 21 22 23 24 25 26 27 28 29 30 31 32 33 34 35 36 37 38 39 40 41 42 43 44 45 46 47 48 49 50
000
ASUS43 KOAX 302302
RWRNE

WEATHER ROUNDUP FOR NEBRASKA
NATIONAL WEATHER SERVICE OMAHA NE
600 PM CDT WED JUL 30 2014

NOTES: SATELLITE DATA IS BEING USED TO AUGMENT CLOUD COVER ABOVE
       12000 FEET.
       "FAIR" INDICATES FEW OR NO CLOUDS BELOW 12,000 FEET WITH NO
       SIGNIFICANT WEATHER AND/OR OBSTRUCTIONS TO VISIBILITY.

  * THESE STATIONS DO NOT REPORT WEATHER SUCH AS RAIN...SNOW OR FOG.

NEZ001>004-019>022-054>056-310000-
NEBRASKA PANHANDLE

CITY           SKY/WX    TMP DP  RH WIND       PRES   REMARKS
SCOTTSBLUFF    PTSUNNY   77  57  50 S12       30.23F
ALLIANCE       MOSUNNY   78  50  37 VRB5      30.21F
CHADRON        PTSUNNY   84  45  25 SE5       30.16F
KIMBALL        CLOUDY    65  56  73 SW13      30.30F
SIDNEY         CLOUDY    69  55  60 SW13      30.29S
$$

NEZ057>060-069>072-079>082-310000-
SOUTHWEST NEBRASKA

CITY           SKY/WX    TMP DP  RH WIND       PRES   REMARKS
NORTH PLATTE   PTSUNNY   78  52  40 S5        30.16F
IMPERIAL       PTSUNNY   79  55  43 N7        30.21F
LEXINGTON      PTSUNNY   78  55  45 S5        30.17S
MCCOOK         MOSUNNY   80  53  39 NE3       30.18S
OGALLALA       CLOUDY    74  55  51 SW6       30.21S
$$

NEZ005>010-023>029-035>040-094-310000-
NORTH CENTRAL NEBRASKA

CITY           SKY/WX    TMP DP  RH WIND       PRES   REMARKS
VALENTINE      MOSUNNY   84  47  27 W5        30.13F
AINSWORTH      PTSUNNY   81  49  32 E3        30.14F
BROKEN BOW     CLOUDY    81  54  39 N6        30.15F
O`NEILL        MOSUNNY   81  55  40 E5        30.13F
ORD            PTSUNNY   79  54  41 CALM      30.12F
THEDFORD       PTSUNNY   81  51  35 NE5       30.17F
$$

NEZ041-046>049-061>064-073>077-083>087-310000-
SOUTH CENTRAL NEBRASKA

CITY           SKY/WX    TMP DP  RH WIND       PRES   REMARKS
GRAND ISLAND   MOSUNNY   79  54  41 E6        30.14F
AURORA         SUNNY     77  56  46 E3        30.13F
HASTINGS       MOSUNNY   78  52  40 NE7       30.14F
HEBRON         MOSUNNY   79  46  31 CALM      30.12F
HOLDREGE       MOSUNNY   78  53  42 CALM      30.16S
KEARNEY *      PTSUNNY   81  55  41 E8        30.15S
YORK           MOSUNNY   77  54  44 N7        30.14S
$$

NEZ011>018-030>034-042>045-310000-
NORTHEAST NEBRASKA

CITY           SKY/WX    TMP DP  RH WIND       PRES   REMARKS
NORFOLK        SUNNY     81  51  35 MISG      30.11F
ALBION         MOSUNNY   78  55  44 NE3       30.13S
BLAIR          MOSUNNY   78  51  39 E3        30.10F
COLUMBUS *     MOSUNNY   79  54  41 NW5       30.12F
FREMONT        SUNNY     80  50  34 CALM      30.11F
TEKAMAH        MOSUNNY   81  53  37 VRB3      30.10S
WAYNE          MOSUNNY   79  55  43 NW3       30.12F
$$

NEZ050>053-065>068-078-088>093-310000-
SOUTHEAST NEBRASKA

CITY           SKY/WX    TMP DP  RH WIND       PRES   REMARKS
LINCOLN        MOSUNNY   81  50  33 NE10      30.11F
OMAHA EPPLEY   MOSUNNY   81  52  36 VRB3      30.10S
BEATRICE       MOSUNNY   78  53  41 CALM      30.11S
FALLS CITY     MOSUNNY   81  53  37 E3        30.08F
NEBRASKA CITY  SUNNY     78  51  38 CALM      30.10F
PLATTSMOUTH    SUNNY     76  52  41 CALM      30.10F
$$

NEZ044-045-051>053-067-310000-
OMAHA AREA

CITY           SKY/WX    TMP DP  RH WIND       PRES   REMARKS
OMAHA EPPLEY   MOSUNNY   81  52  36 VRB3      30.10S
BLAIR          MOSUNNY   78  51  39 E3        30.10F
FREMONT        SUNNY     80  50  34 CALM      30.11F
MILLARD        MOSUNNY   81  53  38 NW3       30.09F
OFFUTT AFB     SUNNY     81  54  39 E3        30.09F
PLATTSMOUTH    SUNNY     76  52  41 CALM      30.10F
WAHOO          FAIR      80  52  37 CALM      30.11F
$$



USA.gov is the U.S. government's official web portal to all federal, state and local government web resources and services.